Location: *
(53.9002°N, 27.5624°E)
Time: 23:47:23
(UTC+00:00)

CZ-4 R/B - Pass Details

Date: 12 November 2019
Orbit: 530 x 601 km, 97.7° (Epoch: 15 December)

Event Time Altitude Azimuth Distance (km) Brightness Sun altitude
Rises 15:19:06 0° 136° (SE) 2,828 4.7 -9.3°
Reaches altitude 10° 15:21:26 10° 126° (SE) 1,923 3.7 -9.6°
Maximum altitude 15:25:07 31° 64° (ENE) 1,045 2.2 -10.1°
Drops below altitude 10° 15:28:45 10° 2° (N) 1,903 3.9 -10.6°
Sets 15:31:03 0° 352° (N) 2,794 4.8 -11.0°
